Regional Weather Roundup
Issued by NWS Charleston, WV

Home | Current Version | Previous Version | Graphics & Text | Print | Product List | Glossary On
Versions: 1 2 3 4 5 6 7 8 9 10 11 12 13 14 15 16 17 18 19 20 21 22 23 24 25 26 27 28
000
ASUS41 KRLX 291510
RWRRLX
West Virginia Regional Weather Roundup
National Weather Service Charleston WV
1100 AM EDT SAT APR 29 2017

Note: "fair" indicates few or no clouds below 12,000 feet with no
significant weather and/or obstructions to visibility.

WVZ003-291600-
Northern Panhandle of West Virginia

CITY           SKY/WX    TMP DP  RH WIND       PRES   REMARKS
WHEELING       LGT RAIN  66  60  81 MISG      30.09R
$$

WVZ009-291600-
Northwest West Virginia

CITY           SKY/WX    TMP DP  RH WIND       PRES   REMARKS
PARKERSBURG    CLOUDY    67  63  87 CALM      30.13R
$$

WVZ006-291600-
Western West Virginia

CITY           SKY/WX    TMP DP  RH WIND       PRES   REMARKS
HUNTINGTON     CLOUDY    73  65  75 VRB3      30.10R
$$

WVZ015-291600-
West Central West Virginia

CITY           SKY/WX    TMP DP  RH WIND       PRES   REMARKS
CHARLESTON     CLOUDY    75  63  66 S8        30.11F
$$

WVZ022-031-291600-
North Central West Virginia

CITY           SKY/WX    TMP DP  RH WIND       PRES   REMARKS
CLARKSBURG     PTSUNNY   69  62  78 NW3       30.12R
MORGANTOWN     CLOUDY    69  61  75 SW5       30.12R
$$

WVZ025-035-042-045-291600-
Southern West Virginia

CITY           SKY/WX    TMP DP  RH WIND       PRES   REMARKS
BECKLEY        CLOUDY    77  60  55 CALM      30.20F
LOGAN          NOT AVBL
BLUEFIELD      SUNNY     75  56  51 S9        30.23S
LEWISBURG      SUNNY     73  61  65 CALM      30.21F
$$

WVZ047-291600-
Northern Mountains of West Virginia

CITY           SKY/WX    TMP DP  RH WIND       PRES   REMARKS
ELKINS         CLOUDY    72  60  66 S9        30.16F
$$

WVZ052-291600-
Eastern Panhandle of West Virginia

CITY           SKY/WX    TMP DP  RH WIND       PRES   REMARKS
MARTINSBURG    CLOUDY    73  61  65 S6        30.06F
PETERSBURG     MOSUNNY   76  65  68 S8        30.11F
$$




USA.gov is the U.S. government's official web portal to all federal, state and local government web resources and services.